Flag for U.S.A. Weather past 2 weeks in Billings, Montana, U.S.A.

Now
67 °F

Passing clouds.


Feels Like: 67 °F
Forecast: 44 / 78 °F
Wind: 8 mph from Northwest

Location: Billings Logan International Airport

Current Time: Mar 30, 2015 at 7:17:46 PM

Latest Report: Mar 30, 2015 at 6:53 PM


Visibility: 10 mi

Pressure: 29.93 "Hg

Humidity: 19%

Dew point: 23 °F

Location of BillingsLocation

Historic Weather in Billings — Graph

°F

Billings temperature yesterday

Maximum temperature yesterday: 64 °F (at 4:53 PM)
Minimum temperature yesterday: 41 °F (at 6:53 AM)
Average temperature yesterday: 52 °F

Past Weeks' High & Low Weather Summary

 TemperatureHumidityPressure
High78 °F (Mar 28, 12:53 PM)100% (Mar 17, 10:01 AM)30.53 "Hg (Mar 17, 10:01 AM)
Low30 °F (Mar 17, 4:01 AM)10% (Mar 22, 4:53 PM)29.55 "Hg (Mar 28, 12:53 PM)
Average50 °F48%30.02 "Hg
* Reported Mar 15 5:53 PM — Mar 30 5:53 PM, Billings, Weather by CustomWeather, © 2015

Note: Actual official high and low records may vary slightly from our data, if they occured in-between our weather recording intervals... More about our weather records

Advertising

Billings weather history for previous 24 hours

 ConditionsComfort  
Time TempWeatherWind HumidityBarometerVisibility
5:53 PM
Mon, Mar 30
70 °FPassing clouds.14 mph16%29.92 "Hg10 mi
4:53 PM70 °FPassing clouds.10 mph14%29.93 "Hg10 mi
3:53 PM71 °FPassing clouds.21 mph15%29.96 "Hg10 mi
2:53 PM70 °FPassing clouds.10 mph14%29.99 "Hg10 mi
1:53 PM67 °FPassing clouds.14 mph17%30.02 "Hg10 mi
12:53 PM67 °FScattered clouds.13 mph19%30.03 "Hg10 mi
11:53 AM65 °FScattered clouds.13 mph20%30.05 "Hg10 mi
10:53 AM63 °FScattered clouds.12 mph23%30.08 "Hg10 mi
9:53 AM60 °FScattered clouds.10 mph30%30.08 "Hg10 mi
8:53 AM54 °FScattered clouds.8 mph38%30.09 "Hg10 mi
7:53 AM52 °FPassing clouds.9 mph38%30.08 "Hg10 mi
6:53 AM51 °FPartly cloudy.10 mph38%30.05 "Hg10 mi
5:53 AM53 °FPassing clouds.16 mph35%30.03 "Hg10 mi
4:53 AM53 °FPassing clouds.17 mph35%30.01 "Hg10 mi
3:53 AM50 °FPassing clouds.13 mph39%30.02 "Hg10 mi
2:53 AM47 °FPassing clouds.13 mph41%30.01 "Hg10 mi
1:53 AM49 °FPassing clouds.9 mph36%30.01 "Hg10 mi
12:53 AM50 °FPassing clouds.12 mph33%30.01 "Hg10 mi
11:53 PM
Sun, Mar 29
50 °FPassing clouds.10 mph32%30.01 "Hg10 mi
10:53 PM49 °FPartly cloudy.10 mph35%30.02 "Hg10 mi
9:53 PM55 °FPassing clouds.6 mph25%30.01 "Hg10 mi
8:53 PM54 °FPartly cloudy.6 mph26%30.02 "Hg10 mi
7:53 PM57 °FBroken clouds.5 mph23%30.02 "Hg10 mi
Weather by CustomWeather, © 2015

See weather overviewHow to use our weather pages